Location: De Har
(53.3413°N, 6.6858°E)
Time: 19:33:44
(UTC+00:00)

Cosmos 1745 Rocket - Pass Details

Date: 22 April 2026
Orbit: 951 x 998 km, 83.0° (Epoch: 21 May)

Event Time Altitude Azimuth Distance (km) Brightness Sun altitude
Rises 03:06:06 0° 350° (N) 3,668 7.4 -10.2°
Reaches altitude 10° 03:08:40 10° 353° (N) 2,711 6.7 -9.9°
Maximum altitude 03:14:49 65° 76° (ENE) 1,048 4.5 -9.2°
Drops below altitude 10° 03:20:54 10° 158° (SSE) 2,673 6.2 -8.4°
Sets 03:23:24 0° 161° (SSE) 3,613 6.8 -8.1°
